Time,TemperatureF,DewpointF,PressureIn,WindDirection,WindDirectionDegrees,WindSpeedMPH,WindSpeedGustMPH,Humidity,HourlyPrecipIn,Conditions,Clouds,dailyrainin,SoftwareType,DateUTC
2013-07-17 00:01:00,79.5,74.3,30.15,North,0,0.0,0.0,84,0.00,CLR,CLR,0.00,WeatherDisplay:10.37,2013-07-17 04:01:00,
2013-07-17 00:02:00,79.5,74.3,30.15,North,0,0.0,0.0,84,0.00,CLR,CLR,0.00,WeatherDisplay:10.37,2013-07-17 04:02:00,
2013-07-17 00:03:00,79.5,73.9,30.15,North,0,0.0,0.0,83,0.00,CLR,CLR,0.00,WeatherDisplay:10.37,2013-07-17 04:03:00,
2013-07-17 00:04:00,79.3,73.7,30.15,North,0,0.0,0.0,83,0.00,CLR,CLR,0.00,WeatherDisplay:10.37,2013-07-17 04:04:00,
2013-07-17 00:09:00,79.5,74.3,30.15,North,0,0.0,0.0,84,0.00,CLR,CLR,0.00,WeatherDisplay:10.37,2013-07-17 04:09:00,
2013-07-17 00:14:00,79.5,74.3,30.15,North,0,0.0,0.0,84,0.00,CLR,CLR,0.00,WeatherDisplay:10.37,2013-07-17 04:14:00,
2013-07-17 00:19:00,79.5,74.3,30.15,North,0,0.0,0.0,84,0.00,CLR,CLR,0.00,WeatherDisplay:10.37,2013-07-17 04:19:00,
2013-07-17 00:25:00,79.7,74.4,30.15,North,0,0.0,0.0,84,0.00,CLR,CLR,0.00,WeatherDisplay:10.37,2013-07-17 04:25:00,
2013-07-17 00:30:00,79.7,74.4,30.15,North,0,0.0,0.0,84,0.00,CLR,CLR,0.00,WeatherDisplay:10.37,2013-07-17 04:30:00,
2013-07-17 00:35:00,79.5,74.3,30.15,North,0,0.0,0.0,84,0.00,CLR,CLR,0.00,WeatherDisplay:10.37,2013-07-17 04:35:00,
2013-07-17 00:40:00,79.3,74.1,30.15,North,0,0.0,0.0,84,0.00,CLR,CLR,0.00,WeatherDisplay:10.37,2013-07-17 04:40:00,
2013-07-17 00:45:00,79.3,74.1,30.15,North,0,0.0,0.0,84,0.00,CLR,CLR,0.00,WeatherDisplay:10.37,2013-07-17 04:45:00,
2013-07-17 00:50:00,79.2,73.9,30.15,North,0,0.0,0.0,84,0.00,CLR,CLR,0.00,WeatherDisplay:10.37,2013-07-17 04:50:00,
2013-07-17 00:56:00,78.6,73.7,30.15,North,0,0.0,0.0,85,0.00,CLR,CLR,0.00,WeatherDisplay:10.37,2013-07-17 04:56:00,
2013-07-17 01:00:00,78.4,73.9,30.15,North,0,0.0,0.0,86,0.00,CLR,CLR,0.00,WeatherDisplay:10.37,2013-07-17 05:00:00,
2013-07-17 01:06:00,78.4,73.9,30.15,North,0,0.0,0.0,86,0.00,CLR,CLR,0.00,WeatherDisplay:10.37,2013-07-17 05:06:00,
2013-07-17 01:11:00,78.8,73.9,30.15,North,0,0.0,0.0,85,0.00,CLR,CLR,0.00,WeatherDisplay:10.37,2013-07-17 05:11:00,
2013-07-17 01:16:00,79.0,74.4,30.15,North,0,0.0,0.0,86,0.00,CLR,CLR,0.00,WeatherDisplay:10.37,2013-07-17 05:16:00,
2013-07-17 01:21:00,78.8,74.3,30.15,North,0,0.0,0.0,86,0.00,CLR,CLR,0.00,WeatherDisplay:10.37,2013-07-17 05:21:00,
2013-07-17 01:26:00,78.8,74.3,30.12,North,0,0.0,0.0,86,0.00,CLR,CLR,0.00,WeatherDisplay:10.37,2013-07-17 05:26:00,
2013-07-17 01:31:00,78.8,74.3,30.12,North,0,0.0,0.0,86,0.00,CLR,CLR,0.00,WeatherDisplay:10.37,2013-07-17 05:31:00,
2013-07-17 01:37:00,79.0,74.4,30.12,North,0,0.0,0.0,86,0.00,CLR,CLR,0.00,WeatherDisplay:10.37,2013-07-17 05:37:00,
2013-07-17 01:42:00,78.6,74.4,30.12,North,0,0.0,0.0,87,0.00,CLR,CLR,0.00,WeatherDisplay:10.37,2013-07-17 05:42:00,
2013-07-17 01:47:00,78.6,74.4,30.12,North,0,0.0,0.0,87,0.00,CLR,CLR,0.00,WeatherDisplay:10.37,2013-07-17 05:47:00,
2013-07-17 01:52:00,78.3,74.1,30.12,North,0,0.0,0.0,87,0.00,CLR,CLR,0.00,WeatherDisplay:10.37,2013-07-17 05:52:00,
2013-07-17 01:57:00,78.1,73.9,30.15,North,0,0.0,0.0,87,0.00,CLR,CLR,0.00,WeatherDisplay:10.37,2013-07-17 05:57:00,
2013-07-17 02:02:00,77.9,73.7,30.15,North,0,0.0,0.0,87,0.00,CLR,CLR,0.00,WeatherDisplay:10.37,2013-07-17 06:02:00,
2013-07-17 02:07:00,77.9,73.7,30.15,North,0,0.0,0.0,87,0.00,CLR,CLR,0.00,WeatherDisplay:10.37,2013-07-17 06:07:00,
2013-07-17 02:12:00,77.9,74.1,30.15,North,0,0.0,0.0,88,0.00,CLR,CLR,0.00,WeatherDisplay:10.37,2013-07-17 06:12:00,
2013-07-17 02:17:00,77.9,74.1,30.15,North,0,0.0,0.0,88,0.00,CLR,CLR,0.00,WeatherDisplay:10.37,2013-07-17 06:17:00,
2013-07-17 02:22:00,77.9,73.7,30.15,North,0,0.0,0.0,87,0.00,CLR,CLR,0.00,WeatherDisplay:10.37,2013-07-17 06:22:00,
2013-07-17 02:28:00,77.7,73.5,30.15,North,0,0.0,0.0,87,0.00,CLR,CLR,0.00,WeatherDisplay:10.37,2013-07-17 06:28:00,
2013-07-17 02:33:00,77.7,73.5,30.15,North,0,0.0,0.0,87,0.00,CLR,CLR,0.00,WeatherDisplay:10.37,2013-07-17 06:33:00,
2013-07-17 02:38:00,77.7,73.5,30.12,North,0,0.0,0.0,87,0.00,CLR,CLR,0.00,WeatherDisplay:10.37,2013-07-17 06:38:00,
2013-07-17 02:43:00,77.5,73.7,30.12,North,0,0.0,0.0,88,0.00,CLR,CLR,0.00,WeatherDisplay:10.37,2013-07-17 06:43:00,
2013-07-17 02:49:00,77.5,73.4,30.12,North,0,0.0,0.0,87,0.00,CLR,CLR,0.00,WeatherDisplay:10.37,2013-07-17 06:49:00,
2013-07-17 02:54:00,77.4,73.2,30.12,North,0,0.0,0.0,87,0.00,CLR,CLR,0.00,WeatherDisplay:10.37,2013-07-17 06:54:00,
2013-07-17 02:59:00,77.4,73.5,30.12,North,0,0.0,0.0,88,0.00,CLR,CLR,0.00,WeatherDisplay:10.37,2013-07-17 06:59:00,
2013-07-17 03:04:00,77.4,73.9,30.12,North,0,0.0,0.0,89,0.00,CLR,CLR,0.00,WeatherDisplay:10.37,2013-07-17 07:04:00,
2013-07-17 03:09:00,77.2,73.3,30.15,North,0,0.0,0.0,88,0.00,CLR,CLR,0.00,WeatherDisplay:10.37,2013-07-17 07:09:00,
2013-07-17 03:14:00,77.0,73.2,30.15,North,0,0.0,0.0,88,0.00,CLR,CLR,0.00,WeatherDisplay:10.37,2013-07-17 07:14:00,
2013-07-17 03:19:00,76.8,73.0,30.15,North,0,0.0,0.0,88,0.00,CLR,CLR,0.00,WeatherDisplay:10.37,2013-07-17 07:19:00,
2013-07-17 03:24:00,76.8,73.0,30.15,North,0,0.0,0.0,88,0.00,CLR,CLR,0.00,WeatherDisplay:10.37,2013-07-17 07:24:00,
2013-07-17 03:29:00,76.8,73.0,30.15,North,0,0.0,0.0,88,0.00,CLR,CLR,0.00,WeatherDisplay:10.37,2013-07-17 07:29:00,
2013-07-17 03:34:00,76.8,73.0,30.15,North,0,0.0,0.0,88,0.00,CLR,CLR,0.00,WeatherDisplay:10.37,2013-07-17 07:34:00,
2013-07-17 03:40:00,76.8,73.3,30.15,North,0,0.0,0.0,89,0.00,CLR,CLR,0.00,WeatherDisplay:10.37,2013-07-17 07:40:00,
2013-07-17 03:45:00,75.6,72.7,30.15,North,0,0.0,0.0,91,0.00,CLR,CLR,0.00,WeatherDisplay:10.37,2013-07-17 07:45:00,
2013-07-17 03:50:00,75.2,72.7,30.15,North,0,0.0,0.0,92,0.00,CLR,CLR,0.00,WeatherDisplay:10.37,2013-07-17 07:50:00,
2013-07-17 03:55:00,75.0,72.9,30.12,North,0,0.0,0.0,93,0.00,CLR,CLR,0.00,WeatherDisplay:10.37,2013-07-17 07:55:00,
2013-07-17 04:00:00,74.8,73.3,30.12,North,0,0.0,0.0,95,0.00,CLR,CLR,0.00,WeatherDisplay:10.37,2013-07-17 08:00:00,
2013-07-17 04:04:00,74.8,73.3,30.12,North,0,0.0,0.0,95,0.00,CLR,CLR,0.00,WeatherDisplay:10.37,2013-07-17 08:04:00,
2013-07-17 04:09:00,74.8,73.3,30.12,North,0,0.0,0.0,95,0.00,CLR,CLR,0.00,WeatherDisplay:10.37,2013-07-17 08:09:00,
2013-07-17 04:15:00,74.8,73.0,30.12,North,0,0.0,0.0,94,0.00,CLR,CLR,0.00,WeatherDisplay:10.37,2013-07-17 08:15:00,
2013-07-17 04:20:00,74.7,73.1,30.12,North,0,0.0,0.0,95,0.00,CLR,CLR,0.00,WeatherDisplay:10.37,2013-07-17 08:20:00,
2013-07-17 04:25:00,74.7,73.1,30.12,North,0,0.0,0.0,95,0.00,CLR,CLR,0.00,WeatherDisplay:10.37,2013-07-17 08:25:00,
2013-07-17 04:30:00,74.7,73.8,30.12,North,0,0.0,0.0,97,0.00,CLR,CLR,0.00,WeatherDisplay:10.37,2013-07-17 08:30:00,
2013-07-17 04:35:00,74.5,73.6,30.12,North,0,0.0,0.0,97,0.00,CLR,CLR,0.00,WeatherDisplay:10.37,2013-07-17 08:35:00,
2013-07-17 04:40:00,74.3,73.4,30.12,North,0,0.0,0.0,97,0.00,CLR,CLR,0.00,WeatherDisplay:10.37,2013-07-17 08:40:00,
2013-07-17 04:45:00,74.3,73.4,30.12,North,0,0.0,0.0,97,0.00,CLR,CLR,0.00,WeatherDisplay:10.37,2013-07-17 08:45:00,
2013-07-17 04:51:00,74.1,73.2,30.12,North,0,0.0,0.0,97,0.00,CLR,CLR,0.00,WeatherDisplay:10.37,2013-07-17 08:51:00,
2013-07-17 04:56:00,74.1,72.9,30.09,North,0,0.0,0.0,96,0.00,CLR,CLR,0.00,WeatherDisplay:10.37,2013-07-17 08:56:00,
2013-07-17 05:01:00,73.9,72.7,30.09,North,0,0.0,0.0,96,0.00,CLR,CLR,0.00,WeatherDisplay:10.37,2013-07-17 09:01:00,
2013-07-17 05:06:00,73.9,72.7,30.09,North,0,0.0,0.0,96,0.00,CLR,CLR,0.00,WeatherDisplay:10.37,2013-07-17 09:06:00,
2013-07-17 05:11:00,73.8,72.5,30.12,North,0,0.0,0.0,96,0.00,CLR,CLR,0.00,WeatherDisplay:10.37,2013-07-17 09:11:00,
2013-07-17 05:16:00,73.8,72.5,30.12,North,0,0.0,0.0,96,0.00,CLR,CLR,0.00,WeatherDisplay:10.37,2013-07-17 09:16:00,
2013-07-17 05:22:00,73.8,72.5,30.12,North,0,0.0,0.0,96,0.00,CLR,CLR,0.00,WeatherDisplay:10.37,2013-07-17 09:22:00,
2013-07-17 05:27:00,73.8,72.5,30.12,North,0,0.0,0.0,96,0.00,CLR,CLR,0.00,WeatherDisplay:10.37,2013-07-17 09:27:00,
2013-07-17 05:32:00,73.8,72.5,30.12,North,0,0.0,0.0,96,0.00,CLR,CLR,0.00,WeatherDisplay:10.37,2013-07-17 09:32:00,
2013-07-17 05:37:00,73.6,72.4,30.12,North,0,0.0,0.0,96,0.00,CLR,CLR,0.00,WeatherDisplay:10.37,2013-07-17 09:37:00,
2013-07-17 05:42:00,73.6,72.4,30.12,North,0,0.0,0.0,96,0.00,CLR,CLR,0.00,WeatherDisplay:10.37,2013-07-17 09:42:00,
2013-07-17 05:47:00,73.6,72.4,30.12,North,0,0.0,0.0,96,0.00,CLR,CLR,0.00,WeatherDisplay:10.37,2013-07-17 09:47:00,
2013-07-17 05:52:00,73.4,72.5,30.12,North,0,0.0,0.0,97,0.00,CLR,CLR,0.00,WeatherDisplay:10.37,2013-07-17 09:52:00,
2013-07-17 05:57:00,73.2,72.3,30.12,North,0,0.0,0.0,97,0.00,CLR,CLR,0.00,WeatherDisplay:10.37,2013-07-17 09:57:00,
2013-07-17 06:03:00,73.2,72.3,30.12,North,0,0.0,0.0,97,0.00,CLR,CLR,0.00,WeatherDisplay:10.37,2013-07-17 10:03:00,
2013-07-17 06:08:00,73.6,72.4,30.12,North,0,0.0,0.0,96,0.00,CLR,CLR,0.00,WeatherDisplay:10.37,2013-07-17 10:08:00,
2013-07-17 06:13:00,73.8,72.5,30.15,North,0,0.0,0.0,96,0.00,CLR,CLR,0.00,WeatherDisplay:10.37,2013-07-17 10:13:00,
2013-07-17 06:18:00,73.8,72.5,30.15,North,0,0.0,0.0,96,0.00,CLR,CLR,0.00,WeatherDisplay:10.37,2013-07-17 10:18:00,
2013-07-17 06:23:00,73.8,72.5,30.15,North,0,0.0,0.0,96,0.00,CLR,CLR,0.00,WeatherDisplay:10.37,2013-07-17 10:23:00,
2013-07-17 06:28:00,73.8,72.5,30.15,North,0,0.0,0.0,96,0.00,CLR,CLR,0.00,WeatherDisplay:10.37,2013-07-17 10:28:00,
2013-07-17 06:34:00,73.9,72.7,30.15,North,0,0.0,0.0,96,0.00,CLR,CLR,0.00,WeatherDisplay:10.37,2013-07-17 10:34:00,
2013-07-17 06:39:00,73.9,72.7,30.15,North,0,0.0,0.0,96,0.00,CLR,CLR,0.00,WeatherDisplay:10.37,2013-07-17 10:39:00,
2013-07-17 06:44:00,73.9,72.7,30.15,North,0,0.0,0.0,96,0.00,CLR,CLR,0.00,WeatherDisplay:10.37,2013-07-17 10:44:00,
2013-07-17 06:49:00,73.8,72.5,30.15,North,0,0.0,0.0,96,0.00,CLR,CLR,0.00,WeatherDisplay:10.37,2013-07-17 10:49:00,
2013-07-17 06:54:00,73.9,72.7,30.15,North,0,0.0,0.0,96,0.00,CLR,CLR,0.00,WeatherDisplay:10.37,2013-07-17 10:54:00,
2013-07-17 07:00:00,73.9,72.7,30.15,North,0,0.0,0.0,96,0.00,CLR,CLR,0.00,WeatherDisplay:10.37,2013-07-17 11:00:00,
2013-07-17 07:05:00,74.1,72.9,30.15,North,0,0.0,0.0,96,0.00,CLR,CLR,0.00,WeatherDisplay:10.37,2013-07-17 11:05:00,
2013-07-17 07:10:00,74.1,72.9,30.15,North,0,0.0,0.0,96,0.00,CLR,CLR,0.00,WeatherDisplay:10.37,2013-07-17 11:10:00,
2013-07-17 07:15:00,74.3,73.1,30.15,North,0,0.0,0.0,96,0.00,CLR,CLR,0.00,WeatherDisplay:10.37,2013-07-17 11:15:00,
2013-07-17 07:21:00,74.5,73.3,30.15,North,0,0.0,0.0,96,0.00,CLR,CLR,0.00,WeatherDisplay:10.37,2013-07-17 11:21:00,
2013-07-17 07:26:00,74.5,73.3,30.15,North,0,0.0,0.0,96,0.00,CLR,CLR,0.00,WeatherDisplay:10.37,2013-07-17 11:26:00,
2013-07-17 07:31:00,74.7,73.4,30.15,North,0,0.0,0.0,96,0.00,CLR,CLR,0.00,WeatherDisplay:10.37,2013-07-17 11:31:00,
2013-07-17 07:36:00,74.8,73.6,30.15,North,0,0.0,0.0,96,0.00,CLR,CLR,0.00,WeatherDisplay:10.37,2013-07-17 11:36:00,
2013-07-17 07:41:00,75.2,74.0,30.15,North,0,0.0,0.0,96,0.00,CLR,CLR,0.00,WeatherDisplay:10.37,2013-07-17 11:41:00,
2013-07-17 07:46:00,75.4,73.8,30.15,North,0,0.0,0.0,95,0.00,CLR,CLR,0.00,WeatherDisplay:10.37,2013-07-17 11:46:00,
2013-07-17 07:52:00,76.3,74.7,30.15,North,0,0.0,0.0,95,0.00,CLR,CLR,0.00,WeatherDisplay:10.37,2013-07-17 11:52:00,
2013-07-17 07:57:00,76.1,74.6,30.15,North,0,0.0,0.0,95,0.00,CLR,CLR,0.00,WeatherDisplay:10.37,2013-07-17 11:57:00,
2013-07-17 08:02:00,76.1,74.6,30.15,North,0,0.0,0.0,95,0.00,CLR,CLR,0.00,WeatherDisplay:10.37,2013-07-17 12:02:00,
2013-07-17 08:07:00,76.8,75.0,30.15,North,0,0.0,0.0,94,0.00,CLR,CLR,0.00,WeatherDisplay:10.37,2013-07-17 12:07:00,
2013-07-17 08:12:00,76.6,74.5,30.15,North,0,0.0,0.0,93,0.00,CLR,CLR,0.00,WeatherDisplay:10.37,2013-07-17 12:12:00,
2013-07-17 08:18:00,77.0,74.8,30.15,North,0,0.0,0.0,93,0.00,CLR,CLR,0.00,WeatherDisplay:10.37,2013-07-17 12:18:00,
2013-07-17 08:23:00,77.4,75.2,30.15,North,0,0.0,0.0,93,0.00,CLR,CLR,0.00,WeatherDisplay:10.37,2013-07-17 12:23:00,
2013-07-17 08:28:00,77.7,75.5,30.15,North,0,0.0,0.0,93,0.00,CLR,CLR,0.00,WeatherDisplay:10.37,2013-07-17 12:28:00,
2013-07-17 08:33:00,77.7,75.2,30.15,North,0,0.0,0.0,92,0.00,CLR,CLR,0.00,WeatherDisplay:10.37,2013-07-17 12:33:00,
2013-07-17 08:38:00,78.6,76.1,30.15,North,0,0.0,0.0,92,0.00,CLR,CLR,0.00,WeatherDisplay:10.37,2013-07-17 12:38:00,
2013-07-17 08:43:00,78.8,75.9,30.15,North,0,0.0,0.0,91,0.00,CLR,CLR,0.00,WeatherDisplay:10.37,2013-07-17 12:43:00,
2013-07-17 08:49:00,79.0,76.1,30.15,North,0,0.0,0.0,91,0.00,CLR,CLR,0.00,WeatherDisplay:10.37,2013-07-17 12:49:00,
2013-07-17 08:54:00,79.5,76.3,30.15,North,0,0.0,0.0,90,0.00,CLR,CLR,0.00,WeatherDisplay:10.37,2013-07-17 12:54:00,
2013-07-17 08:59:00,81.0,77.4,30.15,North,0,0.0,0.0,89,0.00,CLR,CLR,0.00,WeatherDisplay:10.37,2013-07-17 12:59:00,
2013-07-17 09:04:00,80.8,76.9,30.15,North,0,0.0,0.0,88,0.00,CLR,CLR,0.00,WeatherDisplay:10.37,2013-07-17 13:04:00,
2013-07-17 09:09:00,80.6,76.0,30.15,North,0,0.0,0.0,86,0.00,CLR,CLR,0.00,WeatherDisplay:10.37,2013-07-17 13:09:00,
2013-07-17 09:15:00,81.5,76.9,30.15,North,0,0.0,0.0,86,0.00,CLR,CLR,0.00,WeatherDisplay:10.37,2013-07-17 13:15:00,
2013-07-17 09:20:00,81.9,76.9,30.15,North,0,0.0,0.0,85,0.00,CLR,CLR,0.00,WeatherDisplay:10.37,2013-07-17 13:20:00,
2013-07-17 09:25:00,82.9,78.0,30.15,North,0,0.0,0.0,85,0.00,CLR,CLR,0.00,WeatherDisplay:10.37,2013-07-17 13:25:00,
2013-07-17 09:30:00,83.5,78.5,30.15,North,0,0.0,0.0,85,0.00,CLR,CLR,0.00,WeatherDisplay:10.37,2013-07-17 13:30:00,
2013-07-17 09:35:00,83.8,78.5,30.15,North,0,0.0,0.0,84,0.00,CLR,CLR,0.00,WeatherDisplay:10.37,2013-07-17 13:35:00,
2013-07-17 09:40:00,83.5,77.4,30.15,North,0,0.0,0.0,82,0.00,CLR,CLR,0.00,WeatherDisplay:10.37,2013-07-17 13:40:00,
2013-07-17 09:45:00,82.4,76.7,30.15,North,0,0.0,0.0,83,0.00,CLR,CLR,0.00,WeatherDisplay:10.37,2013-07-17 13:45:00,
2013-07-17 09:50:00,82.6,77.3,30.15,North,0,0.0,0.0,84,0.00,CLR,CLR,0.00,WeatherDisplay:10.37,2013-07-17 13:50:00,
2013-07-17 09:56:00,83.1,76.7,30.15,North,0,0.0,0.0,81,0.00,CLR,CLR,0.00,WeatherDisplay:10.37,2013-07-17 13:56:00,
2013-07-17 10:01:00,84.0,77.9,30.15,North,0,0.0,0.0,82,0.00,CLR,CLR,0.00,WeatherDisplay:10.37,2013-07-17 14:01:00,
2013-07-17 10:06:00,83.5,76.7,30.15,North,0,0.0,0.0,80,0.00,CLR,CLR,0.00,WeatherDisplay:10.37,2013-07-17 14:06:00,
2013-07-17 10:11:00,82.8,76.3,30.15,North,0,0.0,0.0,81,0.00,CLR,CLR,0.00,WeatherDisplay:10.37,2013-07-17 14:11:00,
2013-07-17 10:16:00,83.5,77.4,30.15,North,0,0.0,0.0,82,0.00,CLR,CLR,0.00,WeatherDisplay:10.37,2013-07-17 14:16:00,
2013-07-17 10:22:00,83.1,77.1,30.15,North,0,0.0,0.0,82,0.00,CLR,CLR,0.00,WeatherDisplay:10.37,2013-07-17 14:22:00,
2013-07-17 10:27:00,82.4,76.7,30.18,North,0,0.0,0.0,83,0.00,CLR,CLR,0.00,WeatherDisplay:10.37,2013-07-17 14:27:00,
2013-07-17 10:32:00,83.1,77.4,30.18,North,0,0.0,0.0,83,0.00,CLR,CLR,0.00,WeatherDisplay:10.37,2013-07-17 14:32:00,
2013-07-17 10:38:00,84.2,78.5,30.18,North,0,0.0,0.0,83,0.00,CLR,CLR,0.00,WeatherDisplay:10.37,2013-07-17 14:38:00,
2013-07-17 10:43:00,84.9,78.8,30.18,North,0,0.0,0.0,82,0.00,CLR,CLR,0.00,WeatherDisplay:10.37,2013-07-17 14:43:00,
2013-07-17 10:48:00,85.1,77.1,30.18,North,0,0.0,0.0,77,0.00,CLR,CLR,0.00,WeatherDisplay:10.37,2013-07-17 14:48:00,
2013-07-17 10:53:00,86.0,79.1,30.18,North,0,0.0,0.0,80,0.00,CLR,CLR,0.00,WeatherDisplay:10.37,2013-07-17 14:53:00,
2013-07-17 10:59:00,86.2,78.1,30.18,North,0,0.0,0.0,77,0.00,CLR,CLR,0.00,WeatherDisplay:10.37,2013-07-17 14:59:00,
2013-07-17 11:04:00,86.5,78.9,30.18,North,0,0.0,0.0,78,0.00,CLR,CLR,0.00,WeatherDisplay:10.37,2013-07-17 15:04:00,
2013-07-17 11:09:00,86.7,78.6,30.15,North,0,0.0,0.0,77,0.00,CLR,CLR,0.00,WeatherDisplay:10.37,2013-07-17 15:09:00,
2013-07-17 11:14:00,86.4,77.5,30.15,North,0,0.0,0.0,75,0.00,CLR,CLR,0.00,WeatherDisplay:10.37,2013-07-17 15:14:00,
2013-07-17 11:19:00,86.9,78.4,30.15,North,0,0.0,0.0,76,0.00,CLR,CLR,0.00,WeatherDisplay:10.37,2013-07-17 15:19:00,
2013-07-17 11:24:00,87.1,77.8,30.15,North,0,0.0,0.0,74,0.00,CLR,CLR,0.00,WeatherDisplay:10.37,2013-07-17 15:24:00,
2013-07-17 11:29:00,86.4,76.7,30.15,North,0,0.0,0.0,73,0.00,CLR,CLR,0.00,WeatherDisplay:10.37,2013-07-17 15:29:00,
2013-07-17 11:34:00,87.1,77.4,30.15,North,0,0.0,0.0,73,0.00,CLR,CLR,0.00,WeatherDisplay:10.37,2013-07-17 15:34:00,
2013-07-17 11:40:00,87.4,77.7,30.15,North,0,0.0,0.0,73,0.00,CLR,CLR,0.00,WeatherDisplay:10.37,2013-07-17 15:40:00,
2013-07-17 11:45:00,87.4,76.4,30.15,North,0,0.0,0.0,70,0.00,CLR,CLR,0.00,WeatherDisplay:10.37,2013-07-17 15:45:00,
2013-07-17 11:50:00,87.1,75.2,30.15,North,0,0.0,0.0,68,0.00,CLR,CLR,0.00,WeatherDisplay:10.37,2013-07-17 15:50:00,
2013-07-17 11:55:00,87.6,75.3,30.15,North,0,0.0,0.0,67,0.00,CLR,CLR,0.00,WeatherDisplay:10.37,2013-07-17 15:55:00,
2013-07-17 12:00:00,88.2,76.7,30.15,North,0,0.0,0.0,69,0.00,CLR,CLR,0.00,WeatherDisplay:10.37,2013-07-17 16:00:00,
2013-07-17 12:05:00,87.6,74.4,30.15,North,0,0.0,0.0,65,0.00,CLR,CLR,0.00,WeatherDisplay:10.37,2013-07-17 16:05:00,
2013-07-17 12:11:00,88.0,74.3,30.15,North,0,0.0,0.0,64,0.00,CLR,CLR,0.00,WeatherDisplay:10.37,2013-07-17 16:11:00,
2013-07-17 12:16:00,87.8,73.6,30.15,North,0,0.0,0.0,63,0.00,CLR,CLR,0.00,WeatherDisplay:10.37,2013-07-17 16:16:00,
2013-07-17 12:21:00,88.3,76.0,30.15,North,0,0.0,0.0,67,0.00,CLR,CLR,0.00,WeatherDisplay:10.37,2013-07-17 16:21:00,
2013-07-17 12:26:00,88.7,74.5,30.12,North,0,0.0,0.0,63,0.00,CLR,CLR,0.00,WeatherDisplay:10.37,2013-07-17 16:26:00,
2013-07-17 12:32:00,88.7,74.0,30.12,North,0,0.0,0.0,62,0.00,CLR,CLR,0.00,WeatherDisplay:10.37,2013-07-17 16:32:00,
2013-07-17 12:37:00,88.9,73.7,30.12,North,0,0.0,0.0,61,0.00,CLR,CLR,0.00,WeatherDisplay:10.37,2013-07-17 16:37:00,
2013-07-17 12:42:00,89.4,72.7,30.15,North,0,0.0,0.0,58,0.00,CLR,CLR,0.00,WeatherDisplay:10.37,2013-07-17 16:42:00,
2013-07-17 12:47:00,88.7,71.0,30.15,North,0,0.0,0.0,56,0.00,CLR,CLR,0.00,WeatherDisplay:10.37,2013-07-17 16:47:00,
2013-07-17 12:52:00,89.2,73.0,30.15,North,0,0.0,0.0,59,0.00,CLR,CLR,0.00,WeatherDisplay:10.37,2013-07-17 16:52:00,
2013-07-17 12:57:00,89.1,72.4,30.15,North,0,0.0,0.0,58,0.00,CLR,CLR,0.00,WeatherDisplay:10.37,2013-07-17 16:57:00,
2013-07-17 13:02:00,89.4,74.2,30.15,North,0,0.0,0.0,61,0.00,CLR,CLR,0.00,WeatherDisplay:10.37,2013-07-17 17:02:00,
2013-07-17 13:07:00,89.2,71.0,30.15,North,0,0.0,0.0,55,0.00,CLR,CLR,0.00,WeatherDisplay:10.37,2013-07-17 17:07:00,
2013-07-17 13:13:00,90.1,73.4,30.15,North,0,0.0,0.0,58,0.00,CLR,CLR,0.00,WeatherDisplay:10.37,2013-07-17 17:13:00,
2013-07-17 13:15:00,89.8,73.5,30.15,North,0,0.0,0.0,59,0.00,CLR,CLR,0.00,WeatherDisplay:10.37,2013-07-17 17:15:00,
2013-07-17 13:20:00,89.8,72.0,30.15,North,0,0.0,0.0,56,0.00,CLR,CLR,0.00,WeatherDisplay:10.37,2013-07-17 17:20:00,
2013-07-17 13:26:00,89.8,70.9,30.15,North,0,0.0,0.0,54,0.00,CLR,CLR,0.00,WeatherDisplay:10.37,2013-07-17 17:26:00,
2013-07-17 13:31:00,90.0,71.1,30.15,North,0,0.0,0.0,54,0.00,CLR,CLR,0.00,WeatherDisplay:10.37,2013-07-17 17:31:00,
2013-07-17 13:36:00,90.3,72.0,30.15,North,0,0.0,0.0,55,0.00,CLR,CLR,0.00,WeatherDisplay:10.37,2013-07-17 17:36:00,
2013-07-17 13:41:00,89.6,70.8,30.15,North,0,0.0,0.0,54,0.00,CLR,CLR,0.00,WeatherDisplay:10.37,2013-07-17 17:41:00,
2013-07-17 13:46:00,89.6,72.3,30.15,North,0,0.0,0.0,57,0.00,CLR,CLR,0.00,WeatherDisplay:10.37,2013-07-17 17:46:00,
2013-07-17 13:51:00,89.8,71.5,30.15,North,0,0.0,0.0,55,0.00,CLR,CLR,0.00,WeatherDisplay:10.37,2013-07-17 17:51:00,
2013-07-17 13:57:00,90.0,73.2,30.15,North,0,0.0,0.0,58,0.00,CLR,CLR,0.00,WeatherDisplay:10.37,2013-07-17 17:57:00,
2013-07-17 14:02:00,89.4,72.7,30.15,North,0,0.0,0.0,58,0.00,CLR,CLR,0.00,WeatherDisplay:10.37,2013-07-17 18:02:00,
2013-07-17 14:07:00,89.6,70.8,30.15,North,0,0.0,0.0,54,0.00,CLR,CLR,0.00,WeatherDisplay:10.37,2013-07-17 18:07:00,
2013-07-17 14:12:00,90.1,69.0,30.15,North,0,0.0,0.0,50,0.00,CLR,CLR,0.00,WeatherDisplay:10.37,2013-07-17 18:12:00,
2013-07-17 14:17:00,90.5,72.1,30.15,North,0,0.0,0.0,55,0.00,CLR,CLR,0.00,WeatherDisplay:10.37,2013-07-17 18:17:00,
2013-07-17 14:23:00,90.3,70.3,30.15,North,0,0.0,0.0,52,0.00,CLR,CLR,0.00,WeatherDisplay:10.37,2013-07-17 18:23:00,
2013-07-17 14:28:00,90.3,69.2,30.12,North,0,0.0,0.0,50,0.00,CLR,CLR,0.00,WeatherDisplay:10.37,2013-07-17 18:28:00,
2013-07-17 14:33:00,90.9,71.9,30.12,North,0,0.0,0.0,54,0.00,CLR,CLR,0.00,WeatherDisplay:10.37,2013-07-17 18:33:00,
2013-07-17 14:38:00,90.5,68.1,30.12,North,0,0.0,0.0,48,0.00,CLR,CLR,0.00,WeatherDisplay:10.37,2013-07-17 18:38:00,
2013-07-17 14:43:00,90.7,70.1,30.12,North,0,0.0,0.0,51,0.00,CLR,CLR,0.00,WeatherDisplay:10.37,2013-07-17 18:43:00,
2013-07-17 14:48:00,90.0,68.8,30.12,North,0,0.0,0.0,50,0.00,CLR,CLR,0.00,WeatherDisplay:10.37,2013-07-17 18:48:00,
2013-07-17 14:53:00,90.5,70.5,30.12,North,0,0.0,0.0,52,0.00,CLR,CLR,0.00,WeatherDisplay:10.37,2013-07-17 18:53:00,
2013-07-17 14:59:00,90.5,71.0,30.12,North,0,0.0,0.0,53,0.00,CLR,CLR,0.00,WeatherDisplay:10.37,2013-07-17 18:59:00,
2013-07-17 15:04:00,91.0,69.8,30.12,North,0,0.0,0.0,50,0.00,CLR,CLR,0.00,WeatherDisplay:10.37,2013-07-17 19:04:00,
2013-07-17 15:09:00,92.1,71.4,30.12,North,0,0.0,0.0,51,0.00,CLR,CLR,0.00,WeatherDisplay:10.37,2013-07-17 19:09:00,
2013-07-17 15:14:00,91.8,71.1,30.12,North,0,0.0,0.0,51,0.00,CLR,CLR,0.00,WeatherDisplay:10.37,2013-07-17 19:14:00,
2013-07-17 15:19:00,91.2,72.8,30.12,North,0,0.0,0.0,55,0.00,CLR,CLR,0.00,WeatherDisplay:10.37,2013-07-17 19:19:00,
2013-07-17 15:24:00,89.4,69.5,30.12,North,0,0.0,0.0,52,0.00,CLR,CLR,0.00,WeatherDisplay:10.37,2013-07-17 19:24:00,
2013-07-17 15:29:00,88.3,68.5,30.12,North,0,0.0,0.0,52,0.00,CLR,CLR,0.00,WeatherDisplay:10.37,2013-07-17 19:29:00,
2013-07-17 15:35:00,88.2,70.0,30.12,North,0,0.0,0.0,55,0.00,CLR,CLR,0.00,WeatherDisplay:10.37,2013-07-17 19:35:00,
2013-07-17 15:40:00,87.8,70.1,30.12,North,0,0.0,0.0,56,0.00,CLR,CLR,0.00,WeatherDisplay:10.37,2013-07-17 19:40:00,
2013-07-17 15:45:00,88.0,72.8,30.12,North,0,0.0,0.0,61,0.00,CLR,CLR,0.00,WeatherDisplay:10.37,2013-07-17 19:45:00,
2013-07-17 15:50:00,88.0,72.8,30.12,North,0,0.0,0.0,61,0.00,CLR,CLR,0.00,WeatherDisplay:10.37,2013-07-17 19:50:00,
2013-07-17 15:55:00,88.7,74.0,30.12,North,0,0.0,0.0,62,0.00,CLR,CLR,0.00,WeatherDisplay:10.37,2013-07-17 19:55:00,
2013-07-17 16:00:00,88.9,74.2,30.12,North,0,0.0,0.0,62,0.00,CLR,CLR,0.00,WeatherDisplay:10.37,2013-07-17 20:00:00,
2013-07-17 16:06:00,88.2,73.0,30.12,North,0,0.0,0.0,61,0.00,CLR,CLR,0.00,WeatherDisplay:10.37,2013-07-17 20:06:00,
2013-07-17 16:11:00,88.3,73.2,30.12,North,0,0.0,0.0,61,0.00,CLR,CLR,0.00,WeatherDisplay:10.37,2013-07-17 20:11:00,
2013-07-17 16:16:00,88.7,73.5,30.12,North,0,0.0,0.0,61,0.00,CLR,CLR,0.00,WeatherDisplay:10.37,2013-07-17 20:16:00,
2013-07-17 16:21:00,88.9,73.7,30.12,North,0,0.0,0.0,61,0.00,CLR,CLR,0.00,WeatherDisplay:10.37,2013-07-17 20:21:00,
2013-07-17 16:27:00,89.8,75.5,30.12,North,0,0.0,0.0,63,0.00,CLR,CLR,0.00,WeatherDisplay:10.37,2013-07-17 20:27:00,
2013-07-17 16:32:00,89.8,76.0,30.12,North,0,0.0,0.0,64,0.00,CLR,CLR,0.00,WeatherDisplay:10.37,2013-07-17 20:32:00,
2013-07-17 16:37:00,89.6,75.8,30.12,North,0,0.0,0.0,64,0.00,CLR,CLR,0.00,WeatherDisplay:10.37,2013-07-17 20:37:00,
2013-07-17 16:42:00,88.9,75.1,30.12,North,0,0.0,0.0,64,0.00,CLR,CLR,0.00,WeatherDisplay:10.37,2013-07-17 20:42:00,
2013-07-17 16:47:00,88.7,75.0,30.12,North,0,0.0,0.0,64,0.00,CLR,CLR,0.00,WeatherDisplay:10.37,2013-07-17 20:47:00,
2013-07-17 16:52:00,88.3,74.6,30.12,North,0,0.0,0.0,64,0.00,CLR,CLR,0.00,WeatherDisplay:10.37,2013-07-17 20:52:00,
2013-07-17 16:58:00,87.8,74.1,30.09,North,0,0.0,0.0,64,0.00,CLR,CLR,0.00,WeatherDisplay:10.37,2013-07-17 20:58:00,
2013-07-17 17:03:00,87.4,74.2,30.09,North,0,0.0,0.0,65,0.00,CLR,CLR,0.00,WeatherDisplay:10.37,2013-07-17 21:03:00,
2013-07-17 17:08:00,87.1,73.9,30.09,North,0,0.0,0.0,65,0.00,CLR,CLR,0.00,WeatherDisplay:10.37,2013-07-17 21:08:00,
2013-07-17 17:13:00,87.1,73.9,30.09,North,0,0.0,0.0,65,0.00,CLR,CLR,0.00,WeatherDisplay:10.37,2013-07-17 21:13:00,
2013-07-17 17:19:00,86.9,73.7,30.09,North,0,0.0,0.0,65,0.00,CLR,CLR,0.00,WeatherDisplay:10.37,2013-07-17 21:19:00,
2013-07-17 17:24:00,86.9,73.7,30.09,North,0,0.0,0.0,65,0.00,CLR,CLR,0.00,WeatherDisplay:10.37,2013-07-17 21:24:00,
2013-07-17 17:29:00,86.7,73.5,30.09,North,0,0.0,0.0,65,0.00,CLR,CLR,0.00,WeatherDisplay:10.37,2013-07-17 21:29:00,
2013-07-17 17:34:00,86.7,73.5,30.09,North,0,0.0,0.0,65,0.00,CLR,CLR,0.00,WeatherDisplay:10.37,2013-07-17 21:34:00,
2013-07-17 17:39:00,86.5,73.4,30.09,North,0,0.0,0.0,65,0.00,CLR,CLR,0.00,WeatherDisplay:10.37,2013-07-17 21:39:00,
2013-07-17 17:44:00,86.7,73.5,30.09,North,0,0.0,0.0,65,0.00,CLR,CLR,0.00,WeatherDisplay:10.37,2013-07-17 21:44:00,
2013-07-17 17:49:00,86.5,73.8,30.09,North,0,0.0,0.0,66,0.00,CLR,CLR,0.00,WeatherDisplay:10.37,2013-07-17 21:49:00,
2013-07-17 17:55:00,86.2,73.5,30.09,North,0,0.0,0.0,66,0.00,CLR,CLR,0.00,WeatherDisplay:10.37,2013-07-17 21:55:00,
2013-07-17 18:00:00,85.6,73.4,30.09,North,0,0.0,0.0,67,0.00,CLR,CLR,0.00,WeatherDisplay:10.37,2013-07-17 22:00:00,
2013-07-17 18:05:00,85.5,73.7,30.09,North,0,0.0,0.0,68,0.00,CLR,CLR,0.00,WeatherDisplay:10.37,2013-07-17 22:05:00,
2013-07-17 18:10:00,85.8,74.0,30.06,North,0,0.0,0.0,68,0.00,CLR,CLR,0.00,WeatherDisplay:10.37,2013-07-17 22:10:00,
2013-07-17 18:16:00,86.2,73.9,30.06,North,0,0.0,0.0,67,0.00,CLR,CLR,0.00,WeatherDisplay:10.37,2013-07-17 22:16:00,
2013-07-17 18:21:00,86.4,74.5,30.06,North,0,0.0,0.0,68,0.00,CLR,CLR,0.00,WeatherDisplay:10.37,2013-07-17 22:21:00,
2013-07-17 18:26:00,86.4,74.5,30.09,North,0,0.0,0.0,68,0.00,CLR,CLR,0.00,WeatherDisplay:10.37,2013-07-17 22:26:00,
2013-07-17 18:31:00,86.2,73.9,30.09,North,0,0.0,0.0,67,0.00,CLR,CLR,0.00,WeatherDisplay:10.37,2013-07-17 22:31:00,
2013-07-17 18:36:00,86.5,74.3,30.09,North,0,0.0,0.0,67,0.00,CLR,CLR,0.00,WeatherDisplay:10.37,2013-07-17 22:36:00,
2013-07-17 18:42:00,86.4,74.1,30.09,North,0,0.0,0.0,67,0.00,CLR,CLR,0.00,WeatherDisplay:10.37,2013-07-17 22:42:00,
2013-07-17 18:47:00,86.9,74.6,30.09,North,0,0.0,0.0,67,0.00,CLR,CLR,0.00,WeatherDisplay:10.37,2013-07-17 22:47:00,
2013-07-17 18:52:00,87.1,74.8,30.09,North,0,0.0,0.0,67,0.00,CLR,CLR,0.00,WeatherDisplay:10.37,2013-07-17 22:52:00,
2013-07-17 18:57:00,86.5,74.7,30.09,North,0,0.0,0.0,68,0.00,CLR,CLR,0.00,WeatherDisplay:10.37,2013-07-17 22:57:00,
2013-07-17 19:02:00,85.6,73.9,30.09,North,0,0.0,0.0,68,0.00,CLR,CLR,0.00,WeatherDisplay:10.37,2013-07-17 23:02:00,
2013-07-17 19:08:00,85.3,73.5,30.09,North,0,0.0,0.0,68,0.00,CLR,CLR,0.00,WeatherDisplay:10.37,2013-07-17 23:08:00,
2013-07-17 19:13:00,84.7,73.4,30.09,North,0,0.0,0.0,69,0.00,CLR,CLR,0.00,WeatherDisplay:10.37,2013-07-17 23:13:00,
2013-07-17 19:18:00,84.7,73.0,30.09,North,0,0.0,0.0,68,0.00,CLR,CLR,0.00,WeatherDisplay:10.37,2013-07-17 23:18:00,
2013-07-17 19:23:00,84.2,72.9,30.09,North,0,0.0,0.0,69,0.00,CLR,CLR,0.00,WeatherDisplay:10.37,2013-07-17 23:23:00,
2013-07-17 19:28:00,83.8,72.6,30.09,North,0,0.0,0.0,69,0.00,CLR,CLR,0.00,WeatherDisplay:10.37,2013-07-17 23:28:00,
2013-07-17 19:34:00,83.5,72.7,30.09,North,0,0.0,0.0,70,0.00,CLR,CLR,0.00,WeatherDisplay:10.37,2013-07-17 23:34:00,
2013-07-17 19:39:00,83.1,72.7,30.09,North,0,0.0,0.0,71,0.00,CLR,CLR,0.00,WeatherDisplay:10.37,2013-07-17 23:39:00,
2013-07-17 19:44:00,82.6,72.6,30.09,North,0,0.0,0.0,72,0.00,CLR,CLR,0.00,WeatherDisplay:10.37,2013-07-17 23:44:00,
2013-07-17 19:49:00,82.0,72.5,30.09,North,0,0.0,0.0,73,0.00,CLR,CLR,0.00,WeatherDisplay:10.37,2013-07-17 23:49:00,
2013-07-17 19:54:00,81.9,72.4,30.09,North,0,0.0,0.0,73,0.00,CLR,CLR,0.00,WeatherDisplay:10.37,2013-07-17 23:54:00,
2013-07-17 20:00:00,81.1,72.1,30.09,North,0,0.0,0.0,74,0.00,CLR,CLR,0.00,WeatherDisplay:10.37,2013-07-18 00:00:00,
2013-07-17 20:05:00,80.8,71.7,30.09,North,0,0.0,0.0,74,0.00,CLR,CLR,0.00,WeatherDisplay:10.37,2013-07-18 00:05:00,
2013-07-17 20:10:00,80.2,71.6,30.09,North,0,0.0,0.0,75,0.00,CLR,CLR,0.00,WeatherDisplay:10.37,2013-07-18 00:10:00,
2013-07-17 20:15:00,79.9,71.6,30.09,North,0,0.0,0.0,76,0.00,CLR,CLR,0.00,WeatherDisplay:10.37,2013-07-18 00:15:00,
2013-07-17 20:20:00,79.3,71.1,30.09,North,0,0.0,0.0,76,0.00,CLR,CLR,0.00,WeatherDisplay:10.37,2013-07-18 00:20:00,
2013-07-17 20:25:00,79.0,71.2,30.09,North,0,0.0,0.0,77,0.00,CLR,CLR,0.00,WeatherDisplay:10.37,2013-07-18 00:25:00,
2013-07-17 20:30:00,78.6,71.2,30.09,North,0,0.0,0.0,78,0.00,CLR,CLR,0.00,WeatherDisplay:10.37,2013-07-18 00:30:00,
2013-07-17 20:35:00,78.4,71.0,30.09,North,0,0.0,0.0,78,0.00,CLR,CLR,0.00,WeatherDisplay:10.37,2013-07-18 00:35:00,
2013-07-17 20:41:00,78.1,70.7,30.09,North,0,0.0,0.0,78,0.00,CLR,CLR,0.00,WeatherDisplay:10.37,2013-07-18 00:41:00,
2013-07-17 20:46:00,77.9,70.9,30.09,North,0,0.0,0.0,79,0.00,CLR,CLR,0.00,WeatherDisplay:10.37,2013-07-18 00:46:00,
2013-07-17 20:51:00,77.5,70.5,30.09,North,0,0.0,0.0,79,0.00,CLR,CLR,0.00,WeatherDisplay:10.37,2013-07-18 00:51:00,
2013-07-17 20:56:00,77.4,70.7,30.09,North,0,0.0,0.0,80,0.00,CLR,CLR,0.00,WeatherDisplay:10.37,2013-07-18 00:56:00,
2013-07-17 21:01:00,77.2,70.5,30.09,North,0,0.0,0.0,80,0.00,CLR,CLR,0.00,WeatherDisplay:10.37,2013-07-18 01:01:00,
2013-07-17 21:06:00,77.2,70.5,30.09,North,0,0.0,0.0,80,0.00,CLR,CLR,0.00,WeatherDisplay:10.37,2013-07-18 01:06:00,
2013-07-17 21:12:00,77.0,70.7,30.09,North,0,0.0,0.0,81,0.00,CLR,CLR,0.00,WeatherDisplay:10.37,2013-07-18 01:12:00,
2013-07-17 21:17:00,77.0,70.4,30.09,North,0,0.0,0.0,80,0.00,CLR,CLR,0.00,WeatherDisplay:10.37,2013-07-18 01:17:00,
2013-07-17 21:22:00,76.8,70.5,30.09,North,0,0.0,0.0,81,0.00,CLR,CLR,0.00,WeatherDisplay:10.37,2013-07-18 01:22:00,
2013-07-17 21:27:00,76.5,70.9,30.12,North,0,0.0,0.0,83,0.00,CLR,CLR,0.00,WeatherDisplay:10.37,2013-07-18 01:27:00,
2013-07-17 21:33:00,76.1,71.3,30.12,North,0,0.0,0.0,85,0.00,CLR,CLR,0.00,WeatherDisplay:10.37,2013-07-18 01:33:00,
2013-07-17 21:38:00,75.6,71.4,30.12,North,0,0.0,0.0,87,0.00,CLR,CLR,0.00,WeatherDisplay:10.37,2013-07-18 01:38:00,
2013-07-17 21:43:00,75.4,71.2,30.12,North,0,0.0,0.0,87,0.00,CLR,CLR,0.00,WeatherDisplay:10.37,2013-07-18 01:43:00,
2013-07-17 21:48:00,75.4,70.9,30.12,North,0,0.0,0.0,86,0.00,CLR,CLR,0.00,WeatherDisplay:10.37,2013-07-18 01:48:00,
2013-07-17 21:53:00,75.6,70.7,30.12,North,0,0.0,0.0,85,0.00,CLR,CLR,0.00,WeatherDisplay:10.37,2013-07-18 01:53:00,
2013-07-17 21:58:00,75.4,70.2,30.12,North,0,0.0,0.0,84,0.00,CLR,CLR,0.00,WeatherDisplay:10.37,2013-07-18 01:58:00,
2013-07-17 22:03:00,75.4,70.6,30.12,North,0,0.0,0.0,85,0.00,CLR,CLR,0.00,WeatherDisplay:10.37,2013-07-18 02:03:00,
2013-07-17 22:08:00,75.4,70.6,30.12,North,0,0.0,0.0,85,0.00,CLR,CLR,0.00,WeatherDisplay:10.37,2013-07-18 02:08:00,
2013-07-17 22:13:00,75.0,70.2,30.12,North,0,0.0,0.0,85,0.00,CLR,CLR,0.00,WeatherDisplay:10.37,2013-07-18 02:13:00,
2013-07-17 22:18:00,74.7,70.5,30.12,North,0,0.0,0.0,87,0.00,CLR,CLR,0.00,WeatherDisplay:10.37,2013-07-18 02:18:00,
2013-07-17 22:23:00,74.5,70.4,30.12,North,0,0.0,0.0,87,0.00,CLR,CLR,0.00,WeatherDisplay:10.37,2013-07-18 02:23:00,
2013-07-17 22:29:00,74.5,70.4,30.12,North,0,0.0,0.0,87,0.00,CLR,CLR,0.00,WeatherDisplay:10.37,2013-07-18 02:29:00,
2013-07-17 22:34:00,74.5,70.4,30.12,North,0,0.0,0.0,87,0.00,CLR,CLR,0.00,WeatherDisplay:10.37,2013-07-18 02:34:00,
2013-07-17 22:39:00,73.8,70.0,30.09,North,0,0.0,0.0,88,0.00,CLR,CLR,0.00,WeatherDisplay:10.37,2013-07-18 02:39:00,
2013-07-17 22:44:00,73.6,70.1,30.09,North,0,0.0,0.0,89,0.00,CLR,CLR,0.00,WeatherDisplay:10.37,2013-07-18 02:44:00,
2013-07-17 22:49:00,73.6,70.1,30.09,North,0,0.0,0.0,89,0.00,CLR,CLR,0.00,WeatherDisplay:10.37,2013-07-18 02:49:00,
2013-07-17 22:55:00,73.6,69.8,30.09,North,0,0.0,0.0,88,0.00,CLR,CLR,0.00,WeatherDisplay:10.37,2013-07-18 02:55:00,
2013-07-17 23:00:00,73.6,70.1,30.09,North,0,0.0,0.0,89,0.00,CLR,CLR,0.00,WeatherDisplay:10.37,2013-07-18 03:00:00,
2013-07-17 23:05:00,73.4,70.0,30.09,North,0,0.0,0.0,89,0.00,CLR,CLR,0.00,WeatherDisplay:10.37,2013-07-18 03:05:00,
2013-07-17 23:10:00,73.2,69.8,30.09,North,0,0.0,0.0,89,0.00,CLR,CLR,0.00,WeatherDisplay:10.37,2013-07-18 03:10:00,
2013-07-17 23:15:00,73.0,69.9,30.09,North,0,0.0,0.0,90,0.00,CLR,CLR,0.00,WeatherDisplay:10.37,2013-07-18 03:15:00,
2013-07-17 23:21:00,73.0,70.3,30.09,North,0,0.0,0.0,91,0.00,CLR,CLR,0.00,WeatherDisplay:10.37,2013-07-18 03:21:00,
2013-07-17 23:26:00,72.9,70.1,30.09,North,0,0.0,0.0,91,0.00,CLR,CLR,0.00,WeatherDisplay:10.37,2013-07-18 03:26:00,
2013-07-17 23:31:00,73.0,69.9,30.09,North,0,0.0,0.0,90,0.00,CLR,CLR,0.00,WeatherDisplay:10.37,2013-07-18 03:31:00,
2013-07-17 23:36:00,73.0,69.9,30.09,North,0,0.0,0.0,90,0.00,CLR,CLR,0.00,WeatherDisplay:10.37,2013-07-18 03:36:00,
2013-07-17 23:41:00,73.2,70.1,30.09,North,0,0.0,0.0,90,0.00,CLR,CLR,0.00,WeatherDisplay:10.37,2013-07-18 03:41:00,
2013-07-17 23:47:00,73.0,69.9,30.09,North,0,0.0,0.0,90,0.00,CLR,CLR,0.00,WeatherDisplay:10.37,2013-07-18 03:47:00,
2013-07-17 23:52:00,72.5,69.7,30.09,North,0,0.0,0.0,91,0.00,CLR,CLR,0.00,WeatherDisplay:10.37,2013-07-18 03:52:00,
2013-07-17 23:57:00,72.5,69.7,30.09,North,0,0.0,0.0,91,0.00,CLR,CLR,0.00,WeatherDisplay:10.37,2013-07-18 03:57:00,